Location: Newark
(49.3667°N, 21.6167°E)
Time: 20:55:59
(UTC+00:00)

Envisat - Pass Details

Date: 15 December 2019
Orbit: 764 x 766 km, 98.1° (Epoch: 28 January)

Event Time Altitude Azimuth Distance (km) Brightness Sun altitude
Rises 16:10:56 0° 160° (SSE) 3,222 6.2 -14.7°
Reaches altitude 10° 16:13:13 10° 160° (SSE) 2,300 5.5 -15.1°
Maximum altitude 16:18:18 80° 73° (ENE) 784 2.9 -15.8°
Drops below altitude 10° 16:23:24 10° 348° (NNW) 2,317 5.4 -16.6°
Sets 16:25:43 0° 347° (NNW) 3,247 6.2 -17.0°
